Other Public Products
Issued by NWS Grand Forks, ND

Home | Current Version | Previous Version | Graphics & Text | Print | Product List | Glossary On
Versions: 1 2 3 4 5 6 7 8 9 10 11 12 13 14 15 16 17 18 19 20 21 22 23 24 25 26 27 28 29 30 31 32 33 34 35 36 37 38 39 40 41 42 43 44 45 46 47 48 49 50
000
FPUS83 KFGF 182131
OPUFGF
PRAIRIE TO PINES WEATHER ROUNDUP
NATIONAL WEATHER SERVICE EASTERN NORTH DAKOTA/GRAND FORKS ND
400 PM CDT FRI APR 18 2014

 **SATELLITE DATA USED TO AUGMENT SKY COVER AT AUTOMATED STATIONS**
 *****  WEATHER ACROSS EASTERN NORTH DAKOTA  *****

CITY           SKY/WX    TMP DP  RH WIND       PRES   REMARKS
GRAND FORKS    PTSUNNY   53  30  41 SE26G32   30.10F
GRAND FORKS AF PTSUNNY   51  28  40 SE24G31   30.08F
GRAND CITY NWS   N/A     50 N/A N/A SE22        N/A
BUXTON           N/A     51  35  53 E28         N/A
DEVILS LAKE    CLOUDY    48  28  46 SE28G33   29.96F
FARGO          PTSUNNY   53  29  39 SE26G40   30.09F
WAHPETON ARPT  PTCLDY    50  28  43 SE24G36   30.11S
$$

 *****  WEATHER ACROSS CENTRAL AND WESTERN NORTH DAKOTA  *****

CITY           SKY/WX    TMP DP  RH WIND       PRES   REMARKS
JAMESTOWN      CLOUDY    52  32  46 SE35G45   29.93F
BISMARCK       MOSUNNY   60  36  40 SE31G38   29.78F
MINOT          PTSUNNY   54  28  36 E29G41    29.80F
MINOT AFB      PTSUNNY   52  31  43 SE26G39   29.81F
GARRISON         N/A     55  34  45 SE28G40   29.76F
WILLISTON      CLOUDY    56  32  40 SE16G31   29.66F
DICKINSON      CLOUDY    59  35  40 SE22G33   29.67F
HETTINGER      MOSUNNY   62  37  39 SE23      29.68F
$$

 *****  OTHER OBSERVATIONS NORTHEAST NORTH DAKOTA  *****

CITY           SKY/WX    TMP DP  RH WIND       PRES   REMARKS
WALHALLA         N/A     46  27  46 SE22G30   30.08F
LANGDON        CLOUDY    46  25  42 SE32G40   30.01F
CAVALIER       MOCLDY    48  28  46 SE15G22   30.10F
GRAFTON        FAIR      48  28  46 SE22G30   30.08F
CANDO          FAIR      48  28  46 SE28G44   29.95F
FORT TOTTEN    NOT AVBL
ROLLA          CLOUDY    43  27  52 SE31G40   29.96F
RUGBY          FAIR      48  32  53 SE30G41   29.89F
 ***** THE ABOVE OBSERVATIONS ARE NON NWS ARE NOT QUALITY
        CONTROLLED AND MAY MIS-REPORT RAIN FOR SNOW...
$$

 *****  OTHER OBSERVATIONS SOUTHEAST NORTH DAKOTA *****

CITY           SKY/WX    TMP DP  RH WIND       PRES   REMARKS
COOPERSTOWN    FAIR      48  32  53 SE31G48   29.98F
VALLEY CITY    FAIR      50  30  46 SE29G45   29.99F
OAKES          FAIR      52  36  54 SE30G44   29.96F
GWINNER        CLEAR     52  34  50 SE31G40   30.01F
SHEYENNE NWR     N/A     53  29  39 SE26      29.95S
BUFFALO          N/A     49  25  39 SE31        N/A
WYNDMERE       NOT AVBL
 ***** THE ABOVE OBSERVATIONS ARE NON NWS ARE NOT QUALITY
       CONTROLLED AND MAY MIS-REPORT RAIN FOR SNOW...
$$

  *****  WEATHER ACROSS NORTHERN MINNESOTA  *****

CITY           SKY/WX    TMP DP  RH WIND       PRES   REMARKS
FLAG ISLAND    SUNNY     43  14  31 E14G20    30.25F
WARROAD        SUNNY     46  25  42 E14       30.22F
ROSEAU         SUNNY     50  16  25 SE16      30.19F
HALLOCK          N/A     48  25  40 SE16      30.12F
THF RVR FALLS  MOSUNNY   52  25  35 SE20G26   30.14F
HALSTAD          N/A     52  30  43 SE24G36     N/A
FOSSTON        MOSUNNY   50  23  34 SE15G24   30.15F
BAUDETTE       SUNNY     47  15  27 E14       30.24F
WASKISH        MOSUNNY   52  19  28 SE17      30.23F
CROOKSTON      MOSUNNY   52  28  40 SE21      30.12F
$$
  *****  WEATHER ACROSS CENTRAL AND WEST MINNESOTA  *****

CITY           SKY/WX    TMP DP  RH WIND       PRES   REMARKS
BEMIDJI        CLOUDY    47  21  35 SE15G24   30.21S
PARK RAPIDS    PTSUNNY   47  23  38 SE17      30.20F
WADENA         CLOUDY    43  27  52 SE21G29   30.19F
DETROIT LAKES  PTSUNNY   46  28  49 SE22G30   30.14F
MOORHEAD       MOSUNNY   52  25  35 SE24G32   30.11F
FERGUS FALLS   PTSUNNY   48  21  34 SE24G32   30.10F
ELBOW LAKE     FAIR      45  29  53 E23G33    30.13S
MORRIS MN      MOSUNNY   48  36  61 SE28G37   30.11F
STAPLES        CLOUDY    43  23  45 SE14G21   30.22F
WHEATON        MOSUNNY   52  37  58 SE31G38   30.12S
$$
  *****  WEATHER ELSEWHERE ACROSS MINNESOTA  *****

CITY           SKY/WX    TMP DP  RH WIND       PRES   REMARKS
DULUTH         SUNNY     37  20  50 SE13      30.35F
INTRNTL FALLS  SUNNY     45  12  26 SE9G18    30.30F
ELY            SUNNY     43  16  33 CALM      30.33S
CLOQUET        SUNNY     39  14  35 E9        30.33F
BRAINERD       MOSUNNY   48  23  37 SE10G20   30.27F
HIBBING        SUNNY     49  12  22 SE7G16    30.29F
ALEXANDRIA     CLOUDY    44  27  51 E24G35    30.18F
SAINT CLOUD    CLOUDY    45  26  47 SE8       30.27F
MINNEAPOLIS    CLOUDY    51  29  42 E15       30.29F
$$

  *****  WEATHER ACROSS SOUTH DAKOTA  *****

CITY           SKY/WX    TMP DP  RH WIND       PRES   REMARKS
SIOUX FALLS    PTSUNNY   65  35  33 S31G40    30.03F
BROOKINGS      NOT AVBL
WATERTOWN      SUNNY     60  36  40 SE28G43   30.00F
HURON          MOSUNNY   70  38  31 S24G41    29.88F
SISSETON         N/A     49  37  63 SE31G39   30.06F
ABERDEEN       MOSUNNY   66  37  34 SE32G45   29.89F
MITCHELL       SUNNY     71  40  32 S29G47    29.91F
PIERRE         PTSUNNY   80  38  22 S22G31    29.69F
MOBRIDGE       CLOUDY    68  39  34 SE25      29.72F
RAPID CITY     CLOUDY    76  36  23 S23G31    29.66F
$$

  *****  SOME WEATHER IN NEARBY STATES *****

CITY           SKY/WX    TMP DP  RH WIND       PRES   REMARKS
GLASGOW MT     LGT RAIN  47  42  83 E8        29.65F
GREAT FALLS MT PTSUNNY   53  13  20 W30G40    29.71S
CHEYENNE WY    PTSUNNY   71  28  20 S17G25    29.93S
SCOTTSBLUFF NE PTSUNNY   83  35  18 S23G32    29.79F
OMAHA NE       MOSUNNY   68  36  30 S17       30.13F
DES MOINES IA  MOSUNNY   65  32  29 SE10G20   30.23F
DAVENPORT IA   SUNNY     61  26  26 SW5       30.30F
CHICAGO IL     MOSUNNY   48  31  51 NE13      30.33F
EAU CLAIRE WI  SUNNY     51  22  31 NE5       30.32F
LA CROSSE WI   SUNNY     55  26  32 W7        30.32F
$$

  *****  SOME NATIONAL WEATHER *****

CITY           SKY/WX    TMP DP  RH WIND       PRES   REMARKS
LA GUARDIA NY  CLOUDY    45  30  55 NE9       30.37F
RALEIGH NC     CLOUDY    61  41  47 N7        30.27F
ATLANTA GA     LGT RAIN  52  48  86 NE15      30.15F
NEW ORLEANS LA MOSUNNY   73  59  61 NE16      30.06S
OKLAHOMA CITY  MOSUNNY   76  41  28 S10       30.16F
ALBUQUERQUE NM CLOUDY    74  24  15 S8        30.06F
SALT LAKE CITY CLOUDY    61  40  45 N14       29.98R
LOS ANGELES CA PTSUNNY   68  54  60 SW13      29.91S
BOISE ID       SUNNY     59  29  31 NW12G21   30.01F
SEATTLE WA     PTSUNNY   54  37  52 S9        30.12F
$$

*** WEATHER ACROSS MANITOBA...SASKATCHEWAN AND ONTARIO ***
                ***ONTARIO***

CITY           SKY/WX    TMP DP  RH WIND       PRES   REMARKS
GERALDTON      MOSUNNY   39  14  35 NW3       30.35S
THUNDER BAY    MOSUNNY   41  25  52 S8        30.40S
SIOUX LOOKOUT  PTSUNNY   41   3  20 S7        30.33F
TORONTO        CLOUDY    46  43  87 N8        30.25R
BIG TROUT LK   SUNNY     39   9  28 S8        30.38S
PICKLE LAKE    MOSUNNY   43   5  21 VRB2      30.34F
DRYDEN         SUNNY     41   7  24 S10       30.32F
KENORA         PTSUNNY   41  10  28 SE8G20    30.28F
$$
                *** MANITOBA***

CITY           SKY/WX    TMP DP  RH WIND       PRES   REMARKS
BRANDON        CLOUDY    41  23  48 E21G29    30.04F
DAUPHIN        CLOUDY    37  23  56 SE23G32   30.09F
ISLAND LAKE    MOSUNNY   41  10  28 SE6       30.34F
PILOT MOUND      N/A     45  27  49 E29G36      N/A
THE PAS        PTSUNNY   39  10  30 SE15G24   30.15F
THOMPSON       MOSUNNY   41  10  28 SE10      30.29F
WINNIPEG       PTSUNNY   46  14  27 SE17      30.18F
LYNN LAKE      SUNNY     39   5  24 S14G21    30.19F
CHURCHILL      SUNNY     23  14  68 S9        30.42F WCI  13
GILLAM         SUNNY     39  14  35 E8        30.36F
$$
                ***SASKATCHEWAN***

CITY           SKY/WX    TMP DP  RH WIND       PRES   REMARKS
ESTEVAN        CLOUDY    45  30  57 E23G35    29.74
KINDERSLEY     CLOUDY    45  41  87 SE16      29.56F
LLOYDMINSTER   CLOUDY    32  30  93 E12G22    29.68R WCI  23
PRINCE ALBERT  LGT SNOW  32  32 100 E20       29.86  VSB 3/4 WCI  20
REGINA         SNOWSHWR  36  32  87 SE22G31   29.75F FOG



USA.gov is the U.S. government's official web portal to all federal, state and local government web resources and services.